Zurück zum Katalog

O3B FM3

AktivKommunikationMEO
NORAD 40079·PAYLOAD·🇱🇺 Luxembourg

Gestartet Jul 10, 2014 von Guiana Space Centre

Loading…

Nächste Überflüge (nächste 24 Stunden)

TLE

AktuellSource: CelesTrak SupGP

Epoche: Sep 14, 2026, 00:00 UTC

1 40079C 14038A   26257.00000000  .00000000  00000+0  00000+0 0  2573
2 40079   0.0486 354.1769 0003534 221.7640  41.2556  5.00115892    17

Verfolge O3B FM3 in Echtzeit mit AllMySat

Download on the App Store